Eelde, Netherlands

7:08 AM CET on December 16, 2017 (GMT +0100)
Eelde

Weather History for EHGG - April, 2013

Change the Weather History Date:

Monday, April 1, 2013

  Actual Average Record
Temperature  
Mean Temperature 34 °F -  
Max Temperature 43 °F 53 °F 66 °F (1999)
Min Temperature 26 °F 36 °F 26 °F (2012)
Degree Days  
Heating Degree Days 30    
Moisture  
Dew Point 26 °F    
Average Humidity 69    
Maximum Humidity 93    
Minimum Humidity 32    
Precipitation  
Precipitation 0.00 in 0.06 in - ()
Sea Level Pressure  
Sea Level Pressure 29.93 in    
Wind  
Wind Speed 7 mph ()    
Max Wind Speed 17 mph    
Max Gust Speed -    
Visibility 6.3 miles    
Events      
Averages and records for this station are not official NWS values.
T = Trace of Precipitation, MM = Missing Value Source: Averaged Metar Reports

Daily Weather History Graph

Daily Weather History Graph

Search for Another Location

Airport or City:

Trip Planner

Search our weather history database for the weather conditions in past years. The results will help you decide how hot, cold, wet, or windy it might be!

Date:

Astronomy

Apr. 01, 2013 Rise Set
Actual Time 7:07 AM CEST 8:08 PM CEST
Civil Twilight 6:32 AM CEST 8:44 PM CEST
Nautical Twilight 5:49 AM CEST 9:27 PM CEST
Astronomical Twilight 5:03 AM CEST 10:13 PM CEST
Moon 1:37 AM CEST (4/1) 10:00 AM CEST (4/1)
Length of Visible Light 14h 12m
Length of Day
13h 01m
Waning Gibbous, 70% of the Moon is Illuminated
Apr 1
Waning Gibbous
Apr 3
Last Quarter
Apr 10
New
Apr 18
First Quarter
Apr 25
Full

Hourly Weather History & Observations

Time (CEST) Temp. Windchill Dew Point Humidity Pressure Visibility Wind Dir Wind Speed Gust Speed Precip Events Conditions
12:25 AM 30.2 °F 25.4 °F 26.6 °F 86% 29.98 in 6.2 mi NNE 4.6 mph - N/A   Unknown
12:55 AM 30.2 °F 26.7 °F 28.4 °F 93% 29.95 in 6.2 mi NNE 3.5 mph - N/A   Unknown
1:25 AM 30.2 °F 26.7 °F 28.4 °F 93% 29.95 in 6.2 mi NNE 3.5 mph - N/A   Unknown
1:55 AM 30.2 °F 25.4 °F 28.4 °F 93% 29.95 in 6.2 mi North 4.6 mph - N/A   Unknown
2:00 AM 31 °F - 28 °F 84% 29.97 in 8 mi North 4.5 mph - -   Partly Cloudy
2:25 AM 30.2 °F 25.4 °F 28.4 °F 93% 29.95 in 6.2 mi North 4.6 mph - N/A   Unknown
2:55 AM 32.0 °F 27.5 °F 28.4 °F 87% 29.95 in 6.2 mi North 4.6 mph - N/A   Unknown
3:25 AM 32.0 °F 27.5 °F 28.4 °F 87% 29.95 in 6.2 mi North 4.6 mph - N/A   Unknown
3:55 AM 32.0 °F 26.4 °F 28.4 °F 87% 29.95 in 6.2 mi North 5.8 mph - N/A   Unknown
4:25 AM 32.0 °F 26.4 °F 28.4 °F 87% 29.95 in 6.2 mi North 5.8 mph - N/A   Unknown
4:55 AM 32.0 °F 26.4 °F 28.4 °F 87% 29.95 in 6.2 mi North 5.8 mph - N/A   Unknown
5:00 AM 31 °F - 28 °F 85% 29.95 in 11 mi North 4.5 mph - -   Partly Cloudy
5:25 AM 30.2 °F 24.3 °F 28.4 °F 93% 29.92 in 6.2 mi North 5.8 mph - N/A   Unknown
5:55 AM 30.2 °F 24.3 °F 28.4 °F 93% 29.92 in 6.2 mi North 5.8 mph - N/A   Unknown
6:25 AM 30.2 °F 24.3 °F 28.4 °F 93% 29.92 in 6.2 mi North 5.8 mph - N/A   Unknown
6:55 AM 30.2 °F 24.3 °F 28.4 °F 93% 29.92 in 6.2 mi North 5.8 mph - N/A   Unknown
7:25 AM 30.2 °F 24.3 °F 28.4 °F 93% 29.92 in 6.2 mi North 5.8 mph - N/A   Unknown
7:55 AM 30.2 °F 25.4 °F 28.4 °F 93% 29.92 in 6.2 mi North 4.6 mph - N/A   Unknown
8:00 AM 26 °F - 24 °F 86% 29.94 in 6 mi North 2.2 mph - -   Mist
8:25 AM 30.2 °F - 28.4 °F 93% 29.92 in 6.2 mi Variable 2.3 mph - N/A   Unknown
8:55 AM 33.8 °F 28.6 °F 30.2 °F 87% 29.92 in 6.2 mi NNE 5.8 mph - N/A   Unknown
9:25 AM 35.6 °F 29.2 °F 28.4 °F 75% 29.95 in 6.2 mi NE 8.1 mph - N/A   Unknown
9:55 AM 35.6 °F 27.5 °F 24.8 °F 65% 29.92 in 6.2 mi NE 11.5 mph - N/A   Unknown
10:25 AM 37.4 °F 29.3 °F 19.4 °F 48% 29.95 in 6.2 mi ENE 12.7 mph - N/A   Unknown
10:55 AM 37.4 °F 29.3 °F 19.4 °F 48% 29.95 in 6.2 mi ENE 12.7 mph - N/A   Unknown
11:00 AM 39 °F - 20 °F 32% 29.95 in 25 mi NE 13.4 mph - -   Scattered Clouds
11:25 AM 39.2 °F 31.2 °F 21.2 °F 49% 29.95 in 6.2 mi NE 13.8 mph - N/A   Unknown
11:55 AM 41.0 °F 33.1 °F 21.2 °F 45% 29.95 in 6.2 mi ENE 15.0 mph - N/A   Unknown
12:25 PM 41.0 °F 33.5 °F 21.2 °F 45% 29.92 in 6.2 mi ENE 13.8 mph - N/A   Unknown
12:55 PM 42.8 °F 36.2 °F 23.0 °F 46% 29.92 in 6.2 mi ENE 12.7 mph - N/A   Partly Cloudy
1:25 PM 42.8 °F 36.6 °F 23.0 °F 46% 29.92 in 6.2 mi NE 11.5 mph - N/A   Scattered Clouds
1:55 PM 42.8 °F 36.2 °F 24.8 °F 49% 29.92 in 6.2 mi NE 12.7 mph - N/A   Scattered Clouds
2:00 PM 41 °F - 23 °F 36% 29.94 in 22 mi NE 13.4 mph - -   Partly Cloudy
2:25 PM 42.8 °F 36.6 °F 21.2 °F 42% 29.92 in 6.2 mi NE 11.5 mph - N/A   Partly Cloudy
2:55 PM 41.0 °F 33.9 °F 23.0 °F 49% 29.92 in 6.2 mi NE 12.7 mph - N/A   Unknown
3:25 PM 42.8 °F 35.1 °F 24.8 °F 49% 29.92 in 6.2 mi NNE 16.1 mph - N/A   Partly Cloudy
3:55 PM 42.8 °F 35.1 °F 24.8 °F 49% 29.92 in 6.2 mi NNE 16.1 mph - N/A   Unknown
4:25 PM 42.8 °F 34.8 °F 24.8 °F 49% 29.92 in 6.2 mi NNE 17.3 mph - N/A   Unknown
4:55 PM 42.8 °F 34.8 °F 24.8 °F 49% 29.92 in 6.2 mi NE 17.3 mph - N/A   Unknown
5:00 PM 42 °F - 24 °F 37% 29.93 in 25 mi NNE 13.4 mph - -   Scattered Clouds
5:25 PM 41.0 °F 32.8 °F 23.0 °F 49% 29.92 in 6.2 mi NE 16.1 mph - N/A   Unknown
5:55 PM 41.0 °F 33.1 °F 23.0 °F 49% 29.92 in 6.2 mi NNE 15.0 mph - N/A   Unknown
6:25 PM 41.0 °F 32.8 °F 23.0 °F 49% 29.92 in 6.2 mi NE 16.1 mph - N/A   Unknown
6:55 PM 39.2 °F 31.6 °F 24.8 °F 56% 29.92 in 6.2 mi NNE 12.7 mph - N/A   Unknown
7:25 PM 39.2 °F 31.6 °F 24.8 °F 56% 29.92 in 6.2 mi NNE 12.7 mph - N/A   Unknown
7:55 PM 37.4 °F 29.3 °F 26.6 °F 65% 29.92 in 6.2 mi NNE 12.7 mph - N/A   Unknown
8:00 PM 37 °F - 26 °F 54% 29.93 in 28 mi NNE 11.2 mph - -   Partly Cloudy
8:25 PM 35.6 °F 27.1 °F 26.6 °F 70% 29.92 in 6.2 mi NNE 12.7 mph - N/A   Unknown
8:55 PM 35.6 °F 27.5 °F 28.4 °F 75% 29.92 in 6.2 mi NNE 11.5 mph - N/A   Unknown
9:25 PM 33.8 °F 26.4 °F 28.4 °F 81% 29.92 in 6.2 mi NNE 9.2 mph - N/A   Unknown
9:55 PM 33.8 °F 25.8 °F 26.6 °F 75% 29.92 in 6.2 mi NE 10.4 mph - N/A   Unknown
10:25 PM 33.8 °F 26.4 °F 26.6 °F 75% 29.95 in 6.2 mi NE 9.2 mph - N/A   Unknown
10:55 PM 32.0 °F 24.8 °F 28.4 °F 87% 29.95 in 6.2 mi NE 8.1 mph - N/A   Unknown
11:00 PM 32 °F - 28 °F 78% 29.96 in 22 mi NE 8.9 mph - -  
11:25 PM 32.0 °F 24.2 °F 28.4 °F 87% 29.95 in 6.2 mi NE 9.2 mph - N/A   Unknown
11:55 PM 30.2 °F 24.3 °F 26.6 °F 86% 29.95 in 6.2 mi NE 5.8 mph - N/A   Unknown